STARLINK-33598, 62771

Orbit data source: Space-Track

STARLINK-33598, 62771 is a payload satellite owned by SpaceX/Seattle (US) in LEO that was launched on Tue, 21 Jan 2025 UTC via an FALCON 9 launch vehicle from the Air Force Western Test Range (AFWTR). Payload-class satellites include a variety of spacecraft equipped with specific instruments for various scientific and technological missions. These include communications satellites like Starlink; space stations such as the ISS; scientific satellites like the Hubble; Earth observation satellites from companies like Planet Labs, Umbra, and HawkEye 360; GPS; miniature CubeSats for education and research; and military/defense satellites.

Loading next visibility...
Identifier
62771, 2025-015P
Orbit
LEO
Country
Flag of USUS
Related business
Manufacturer
SpaceX/Seattle
Mission
Operational Commercial Communications
Bus & Motor
STARLINK V2MO, Unknown motor
Mass
575 kg wet, ~530 kg dry
Launch date (UTC)
2025-01-21 (1 year ago)
Launch vehicle
FALCON 9
Launch site
Air Force Western Test Range (AFWTR)
Object type
Payload
Rocket body
Debris
Shape & HBR
Box + 2 Pan, 17.7 m
Radar Cross Section
36.964 m², Large (>1 m²)

Expand to show TLE details & history
Last TLE update: 12 hours ago

TLE from 12 hours ago
0 STARLINK-33598
1 62771U 25015P   26171.35333147  .00009531  00000-0  29282-3 0  9996
2 62771  53.1594 204.5821 0001299  84.1932 275.9218 15.34402565 80212
Epoch: 2026-06-20T08:28Z
TLE epoch observation values (Epoch: 2026-06-20T08:28:47.839Z)
Latitude
-0.00005°
Longitude
168.81356°
Altitude
463.505 km
Speed
7.636 km/s
True Right ascension
13h 38m 19s
True Declination
0° 00' 00"
Sunlit
Object was in full shadow at epoch
Visualization orbit readout
Latitude
Unknown
Longitude
Unknown
Altitude
Unknown
Speed
Unknown
Apparent Right ascension
Unknown
Apparent Declination
Unknown
Sunlit
N/A
Visualization observer readout
Local Sidereal Time
07:13:12
Azimuth
Unknown
Elevation
Unknown
Doppler factor
Unknown
Orbital elements
Apogee altitude
463.841 km
Perigee altitude
462.064 km
Semi-major axis
6,841.09 km
Eccentricity
0.00013
Inclination
53.1594°
RAAN
204.5821°
Arg. of periapsis
84.1932°
True anomaly
275.90699°
Mean anomaly
275.9218°
Eccentric anomaly
275.9144°
Mean motion
3.83579 °/min
Orbital period
93.85 mins
BSTAR
0.00029282
Loading maneuver chart data...
Computing Atmospheric mass density...
Loading historical data...
Loading historical data...
Loading historical data...
Loading historical data...
Loading historical data...
Loading historical data...
Loading historical data...

Documentation

Showing up to 5 results
|